| time (UTC) | temp F | wind direction | speed MPH | gust MPH | rain 1hr in | rain 24hr in | rain mn in | humidity % | barometer mb |
| 20260902170024 | 78 | 212 | 1.0 | 4.0 | 0.00 | 0.24 | 0.23 | 72 | 1014.4 |
| 20260902164530 | 77 | 212 | 1.0 | 5.0 | 0.00 | 0.24 | 0.23 | 73 | 1014.4 |
| 20260902163027 | 77 | 82 | 3.0 | 8.0 | 0.00 | 0.24 | 0.23 | 76 | 1014.0 |
| 20260902161517 | 76 | 78 | 2.0 | 9.0 | 0.00 | 0.24 | 0.23 | 79 | 1014.0 |
| 20260902160014 | 75 | 111 | 2.0 | 7.0 | 0.00 | 0.24 | 0.23 | 78 | 1014.0 |
| 20260902154533 | 73 | 78 | 4.0 | 9.0 | 0.00 | 0.24 | 0.23 | 81 | 1013.7 |
| 20260902153038 | 72 | 59 | 4.0 | 8.0 | 0.00 | 0.24 | 0.23 | 82 | 1013.7 |
| 20260902151520 | 72 | 54 | 5.0 | 9.0 | 0.00 | 0.24 | 0.23 | 83 | 1013.6 |
| 20260902150027 | 71 | 93 | 3.0 | 9.0 | 0.00 | 0.24 | 0.23 | 86 | 1013.6 |
| 20260902144523 | 69 | 113 | 3.0 | 7.0 | 0.00 | 0.24 | 0.23 | 90 | 1013.6 |
| 20260902143023 | 67 | 61 | 3.0 | 7.0 | 0.00 | 0.24 | 0.23 | 94 | 1013.6 |
| 20260902141526 | 66 | 41 | 2.0 | 7.0 | 0.00 | 0.24 | 0.23 | 94 | 1013.8 |
| 20260902140036 | 66 | 64 | 3.0 | 7.0 | 0.00 | 0.24 | 0.23 | 95 | 1013.8 |
| 20260902134530 | 65 | 105 | 2.0 | 8.0 | 0.00 | 0.24 | 0.23 | 95 | 1013.7 |
| 20260902133029 | 65 | 96 | 4.0 | 8.0 | 0.00 | 0.24 | 0.23 | 95 | 1013.8 |
| 20260902131529 | 64 | 68 | 1.0 | 6.0 | 0.00 | 0.24 | 0.23 | 94 | 1013.7 |
| 20260902130027 | 64 | 103 | 1.0 | 3.0 | 0.00 | 0.24 | 0.23 | 94 | 1013.9 |
| 20260902124534 | 64 | 72 | 2.0 | 4.0 | 0.00 | 0.24 | 0.23 | 94 | 1013.8 |
| 20260902123034 | 64 | 64 | 2.0 | 5.0 | 0.00 | 0.24 | 0.23 | 94 | 1013.7 |
| 20260902121526 | 64 | 87 | 3.0 | 7.0 | 0.00 | 0.24 | 0.23 | 94 | 1013.4 |
| 20260902120032 | 64 | 88 | 1.0 | 4.0 | 0.00 | 0.24 | 0.23 | 94 | 1013.6 |
| 20260902114529 | 64 | 133 | 3.0 | 8.0 | 0.00 | 0.24 | 0.23 | 94 | 1013.8 |
| 20260902113028 | 64 | 77 | 2.0 | 6.0 | 0.08 | 0.24 | 0.23 | 94 | 1013.8 |
| 20260902111523 | 65 | 111 | 2.0 | 7.0 | 0.13 | 0.24 | 0.23 | 94 | 1014.0 |
| 20260902110030 | 65 | 309 | 1.0 | 2.0 | 0.13 | 0.24 | 0.23 | 93 | 1014.8 |
| 20260902104532 | 65 | 265 | 1.0 | 7.0 | 0.13 | 0.24 | 0.23 | 93 | 1014.1 |
| 20260902103003 | 65 | 140 | 4.0 | 9.0 | 0.05 | 0.16 | 0.15 | 93 | 1014.3 |
| 20260902101516 | 65 | 212 | 1.0 | 4.0 | 0.00 | 0.11 | 0.10 | 92 | 1014.6 |
| 20260902100005 | 65 | 209 | 2.0 | 6.0 | 0.00 | 0.11 | 0.10 | 92 | 1014.6 |
| 20260902094503 | 64 | 201 | 3.0 | 11.0 | 0.00 | 0.11 | 0.10 | 92 | 1014.1 |
| 20260902093002 | 64 | 214 | 2.0 | 7.0 | 0.00 | 0.11 | 0.10 | 91 | 1013.6 |
| 20260902091510 | 64 | 119 | 2.0 | 9.0 | 0.00 | 0.11 | 0.10 | 90 | 1013.3 |
| 20260902090019 | 65 | 151 | 5.0 | 12.0 | 0.00 | 0.11 | 0.10 | 90 | 1013.5 |
| 20260902084518 | 65 | 271 | 3.0 | 11.0 | 0.00 | 0.11 | 0.10 | 89 | 1013.1 |
| 20260902083006 | 65 | 93 | 6.0 | 13.0 | 0.00 | 0.11 | 0.10 | 88 | 1012.0 |
| 20260902081508 | 65 | 83 | 6.0 | 15.0 | 0.01 | 0.11 | 0.10 | 89 | 1012.3 |
| 20260902080003 | 65 | 65 | 3.0 | 15.0 | 0.04 | 0.11 | 0.10 | 90 | 1012.8 |
| 20260902074527 | 65 | 88 | 6.0 | 14.0 | 0.05 | 0.11 | 0.10 | 89 | 1013.4 |
| 20260902073006 | 66 | 88 | 7.0 | 13.0 | 0.07 | 0.11 | 0.10 | 88 | 1013.0 |
| 20260902071515 | 66 | 113 | 7.0 | 17.0 | 0.06 | 0.10 | 0.09 | 87 | 1013.1 |
| 20260902070020 | 68 | 98 | 6.0 | 14.0 | 0.04 | 0.07 | 0.06 | 87 | 1013.9 |
| 20260902064513 | 68 | 93 | 4.0 | 10.0 | 0.03 | 0.06 | 0.05 | 87 | 1015.1 |
| 20260902063006 | 69 | 169 | 7.0 | 20.0 | 0.01 | 0.04 | 0.03 | 87 | 1016.3 |
| 20260902061534 | 69 | 225 | 8.0 | 15.0 | 0.01 | 0.04 | 0.03 | 93 | 1016.6 |
| 20260902060025 | 68 | 243 | 1.0 | 5.0 | 0.02 | 0.03 | 0.02 | 93 | 1014.6 |
| 20260902054522 | 69 | 31 | 3.0 | 9.0 | 0.03 | 0.03 | 0.02 | 93 | 1013.1 |
| 20260902053017 | 69 | 337 | 4.0 | 7.0 | 0.03 | 0.03 | 0.02 | 93 | 1013.2 |
| 20260902051512 | 69 | 99 | 3.0 | 6.0 | 0.03 | 0.03 | 0.02 | 93 | 1013.8 |
| 20260902050011 | 68 | 265 | 0.0 | 6.0 | 0.01 | 0.01 | 0.00 | 93 | 1015.0 |
| 20260902044536 | 68 | 221 | 1.0 | 3.0 | 0.00 | 0.00 | 0.00 | 93 | 1014.4 |
| 20260902043014 | 68 | 34 | 1.0 | 4.0 | 0.00 | 0.00 | 0.00 | 92 | 1013.8 |
| 20260902041524 | 68 | 313 | 1.0 | 3.0 | 0.00 | 0.00 | 0.00 | 91 | 1013.7 |
| 20260902040024 | 68 | 68 | 1.0 | 3.0 | 0.00 | 0.00 | 0.00 | 90 | 1013.6 |
| 20260902034519 | 68 | 93 | 0.0 | 3.0 | 0.00 | 0.00 | 0.00 | 90 | 1013.5 |
| 20260902033014 | 68 | 93 | 0.0 | 2.0 | 0.00 | 0.00 | 0.00 | 89 | 1014.0 |
| 20260902031511 | 69 | 93 | 0.0 | 2.0 | 0.00 | 0.00 | 0.00 | 88 | 1014.4 |
| 20260902030029 | 69 | 298 | 1.0 | 2.0 | 0.00 | 0.00 | 0.00 | 87 | 1014.3 |
| 20260902024527 | 69 | 137 | 1.0 | 2.0 | 0.00 | 0.00 | 0.00 | 86 | 1014.3 |
| 20260902023018 | 70 | 325 | 0.0 | 2.0 | 0.00 | 0.00 | 0.00 | 86 | 1014.3 |
| 20260902021535 | 70 | 51 | 0.0 | 2.0 | 0.00 | 0.00 | 0.00 | 85 | 1014.2 |
| 20260902020022 | 71 | 9 | 0.0 | 2.0 | 0.00 | 0.00 | 0.00 | 84 | 1014.3 |
| 20260902014511 | 71 | 265 | 1.0 | 2.0 | 0.00 | 0.00 | 0.00 | 84 | 1014.1 |
| 20260902013018 | 72 | 212 | 0.0 | 2.0 | 0.00 | 0.00 | 0.00 | 83 | 1013.9 |
| 20260902011528 | 73 | 265 | 1.0 | 2.0 | 0.00 | 0.00 | 0.00 | 82 | 1013.9 |
| 20260902010029 | 74 | 254 | 0.0 | 2.0 | 0.00 | 0.00 | 0.00 | 81 | 1013.8 |
| 20260902004515 | 76 | 265 | 0.0 | 3.0 | 0.00 | 0.00 | 0.00 | 79 | 1013.9 |
| 20260902003029 | 76 | 265 | 0.0 | 2.0 | 0.00 | 0.00 | 0.00 | 78 | 1013.8 |
| 20260902001516 | 77 | 232 | 1.0 | 3.0 | 0.00 | 0.00 | 0.00 | 78 | 1014.0 |
| 20260902000031 | 78 | 272 | 2.0 | 4.0 | 0.00 | 0.00 | 0.00 | 77 | 1014.2 |
| 20260901234519 | 78 | 265 | 1.0 | 4.0 | 0.00 | 0.00 | 0.00 | 78 | 1014.2 |
| 20260901233024 | 79 | 265 | 1.0 | 4.0 | 0.00 | 0.00 | 0.00 | 75 | 1014.1 |
| 20260901231528 | 79 | 221 | 0.0 | 3.0 | 0.00 | 0.00 | 0.00 | 74 | 1014.1 |
| 20260901230027 | 80 | 221 | 1.0 | 3.0 | 0.00 | 0.00 | 0.00 | 75 | 1014.1 |
| 20260901224522 | 81 | 280 | 2.0 | 4.0 | 0.00 | 0.00 | 0.00 | 70 | 1014.1 |
| 20260901223024 | 81 | 265 | 1.0 | 3.0 | 0.00 | 0.00 | 0.00 | 70 | 1014.1 |
| 20260901221531 | 82 | 286 | 2.0 | 4.0 | 0.00 | 0.00 | 0.00 | 69 | 1014.2 |
| 20260901220037 | 82 | 249 | 1.0 | 3.0 | 0.00 | 0.00 | 0.00 | 68 | 1014.1 |
| 20260901214523 | 83 | 234 | 1.0 | 3.0 | 0.00 | 0.00 | 0.00 | 63 | 1014.1 |
| 20260901213039 | 83 | 287 | 2.0 | 6.0 | 0.00 | 0.00 | 0.00 | 61 | 1014.1 |
| 20260901211527 | 82 | 255 | 3.0 | 7.0 | 0.00 | 0.00 | 0.00 | 62 | 1014.2 |
| 20260901210019 | 82 | 236 | 2.0 | 5.0 | 0.00 | 0.00 | 0.00 | 66 | 1014.2 |
| 20260901204523 | 82 | 212 | 1.0 | 2.0 | 0.00 | 0.00 | 0.00 | 67 | 1014.3 |
| 20260901203030 | 82 | 304 | 2.0 | 5.0 | 0.00 | 0.00 | 0.00 | 59 | 1014.3 |
| 20260901201531 | 82 | 280 | 2.0 | 4.0 | 0.00 | 0.00 | 0.00 | 59 | 1014.8 |
| 20260901200030 | 82 | 275 | 2.0 | 4.0 | 0.00 | 0.00 | 0.00 | 62 | 1014.6 |
| 20260901194526 | 82 | 309 | 0.0 | 3.0 | 0.00 | 0.00 | 0.00 | 61 | 1014.5 |
| 20260901193028 | 82 | 232 | 2.0 | 5.0 | 0.00 | 0.00 | 0.00 | 61 | 1014.9 |
| 20260901191537 | 82 | 226 | 2.0 | 6.0 | 0.00 | 0.00 | 0.00 | 58 | 1014.9 |
| 20260901190034 | 83 | 198 | 2.0 | 6.0 | 0.00 | 0.00 | 0.00 | 56 | 1014.9 |
| 20260901184540 | 84 | 193 | 2.0 | 5.0 | 0.00 | 0.00 | 0.00 | 54 | 1014.8 |
| 20260901183036 | 85 | 321 | 2.0 | 6.0 | 0.00 | 0.00 | 0.00 | 53 | 1014.4 |
| 20260901181534 | 84 | 336 | 1.0 | 7.0 | 0.00 | 0.00 | 0.00 | 54 | 1014.8 |
| 20260901180023 | 83 | 273 | 2.0 | 5.0 | 0.00 | 0.00 | 0.00 | 51 | 1015.3 |
| 20260901174525 | 82 | 249 | 2.0 | 6.0 | 0.00 | 0.00 | 0.00 | 55 | 1015.4 |
| 20260901173023 | 81 | 309 | 2.0 | 5.0 | 0.00 | 0.00 | 0.00 | 63 | 1015.5 |
| 20260901171518 | 81 | 273 | 2.0 | 8.0 | 0.00 | 0.00 | 0.00 | 56 | 1015.6 |